Regional Weather Roundup
Issued by NWS

Home | Current Version | Previous Version | Text Only | Print | Product List | Glossary Off
Versions: 1 2 3 4 5 6 7 8 9 10 11 12 13 14 15 16 17 18 19 20 21 22 23 24 25 26 27 28 29 30 31 32 33 34 35 36 37 38 39 40 41 42 43 44 45 46 47 48 49 50

000
ASUS43 KIND 051359
RWRIN

WEATHER ROUNDUP FOR INDIANA
NATIONAL WEATHER SERVICE INDIANAPOLIS IN
1000 AM EDT SUN JUL 05 2015

NOTE: "FAIR" INDICATES FEW OR NO CLOUDS BELOW 12,000 FEET WITH NO
SIGNIFICANT WEATHER AND/OR OBSTRUCTIONS TO VISIBILITY.

* - STATION DOES NOT REPORT WEATHER SUCH AS PRECIPITATION OR FOG.

+ - STATION NOT QUALITY CONTROLLED BY THE NATIONAL WEATHER SERVICE.
    USE DATA WITH CAUTION...ESPECIALLY DEWPOINT AND RELATIVE
    HUMIDITY OBSERVATIONS.

INZ001>003-010>013-019-020-051500-
NORTHWEST INDIANA

CITY           SKY/WX    TMP DP  RH WIND       PRES   REMARKS
GARY /AIRPORT/ SUNNY    N/A N/A N/A CALM      30.11R HAZE
RENSSELAER +   SUNNY     72  64  78 CALM      30.11S

$$

LMZ046-743>745-051500-
SOUTHERN LAKE MICHIGAN

STATION/POSITION TIME  TEMP    WIND        PRES    WAVE
                       AIR SEA DIR/SP/G            HT
                 (UTC) (F)     (DEG/KT/KT) (MB)    (FT)
BURNS HARBOR     1300   70     260/  3/  5 1020.0R
MICHIGAN CITY    1300   69     230/  3/  5   N/A
5NW MICH CITY    1300   67 64   CALM  /  2   N/A     0

$$

INZ004-005-014>016-021>024-051500-
NORTH CENTRAL INDIANA

CITY           SKY/WX    TMP DP  RH WIND       PRES   REMARKS
ELKHART        SUNNY     72  63  73 CALM      30.14R HAZE
GOSHEN         SUNNY     72  63  73 CALM      30.13R
SOUTH BEND     SUNNY     74  62  66 S5        30.13R

$$

INZ006>009-017-018-025>027-051500-
NORTHEAST INDIANA

CITY           SKY/WX    TMP DP  RH WIND       PRES   REMARKS
ANGOLA *+        N/A     72  64  78 CALM      30.13R
FORT WAYNE     CLOUDY    71  62  73 CALM      30.13S

$$

INZ028-029-035-036-043>045-051>053-051500-
WEST CENTRAL INDIANA

CITY           SKY/WX    TMP DP  RH WIND       PRES   REMARKS
CRAWFORDSVL +  MOSUNNY   71  60  68 SE3       30.10S
GREENCASTLE +  PTSUNNY   72  61  68 CALM      30.10F HAZE
LAFAYETTE      SUNNY     71  63  75 E3        30.10S HAZE
TERRE HAUTE    MOSUNNY   72  65  78 E3        30.08F HAZE

$$

INZ030>032-037>040-046>048-054>057-064-065-051500-
CENTRAL INDIANA

CITY           SKY/WX    TMP DP  RH WIND       PRES   REMARKS
GREENWOOD *+   MOSUNNY   75  59  57 CALM      30.10F
INDIANAPOLIS   PTSUNNY   75  60  59 CALM      30.08F
-EAGLE CREEK   PTSUNNY   73  62  68 CALM      30.10S
KOKOMO *+      MOSUNNY   68  61  77 CALM      30.11S
MT COMFORT *+  MOSUNNY   73  57  56 CALM      30.11S
SHELBYVILLE    MOSUNNY   74  64  71 E5        30.09S

$$

INZ033-034-041-042-049-050-058-059-051500-
EAST CENTRAL INDIANA

CITY           SKY/WX    TMP DP  RH WIND       PRES   REMARKS
MUNCIE         PTSUNNY   74  60  61 CALM      30.12R

$$

INZ060-061-067>069-081>083-085>088-051500-
SOUTHWEST INDIANA

CITY           SKY/WX    TMP DP  RH WIND       PRES   REMARKS
EVANSVILLE     PTSUNNY   73  68  84 CALM      30.07S HAZE
HUNTINGBURG *+ PTSUNNY   73  68  83 E5        30.07R

$$

INZ062-063-066-070>080-084-089>092-051500-
SOUTH CENTRAL AND SOUTHEAST INDIANA

CITY           SKY/WX    TMP DP  RH WIND       PRES   REMARKS
BLOOMINGTON    PTSUNNY   74  66  76 CALM      30.09S
MADISON *+     CLOUDY    72  63  73 CALM      30.11R
SEYMOUR +      PTSUNNY   72  66  83 CALM      30.09R HAZE

$$



USA.gov is the U.S. government's official web portal to all federal, state and local government web resources and services.